Probability
0 0 0 0 0 0 0 0 0 0 0 0 0 1 2 2 2 3 3 2 3 5 5 4 3 3 2 2 1 0 0 0 0 0 0 0 0 0 0 0 0 0 0
1 0 0 0 0 0 0 0 0 0 0 0 0 1 1 1 1 3 3 1 2 4 5 4 3 3 3 2 1 0 0 0 0 0 0 0 0 0 0 0 0 0 0
2 1 0 0 0 0 0 0 0 0 0 1 1 1 1 1 1 2 3 1 1 2 3 3 2 2 2 1 1 0 0 0 0 0 0 0 0 0 0 0 0 0 0
2 1 0 0 1 1 1 0 0 0 1 2 2 2 2 2 2 2 3 1 0 2 3 2 1 1 1 1 0 0 0 0 0 0 0 0 0 0 0 0 0 0 0
2 1 0 1 2 2 1 0 0 0 1 2 3 3 3 3 2 2 3 2 1 2 2 1 0 0 0 1 1 0 0 0 0 0 0 0 0 0 0 0 0 0 0
1 1 1 2 3 3 1 0 0 0 1 2 3 3 3 3 3 3 3 3 3 3 2 1 0 0 0 0 0 0 0 0 0 0 0 0 0 0 0 0 0 0 0
2 2 3 5 5 4 1 0 0 1 2 3 3 3 3 3 4 4 5 5 4 3 3 1 0 0 0 0 0 0 0 0 0 0 0 0 0 0 0 0 0 0 0
2 3 6 6 6 4 3 1 1 2 3 4 4 3 3 3 4 6 6 6 4 3 3 2 1 0 0 0 0 1 0 0 0 0 0 0 0 0 0 0 0 0 0
2 4 7 6 5 4 3 3 3 3 4 4 4 4 4 4 5 6 6 6 5 3 2 2 1 0 0 0 0 0 0 0 0 0 0 0 0 0 0 0 0 0 0
3 5 8 7 5 3 3 3 3 3 4 5 6 5 5 6 6 6 6 6 5 3 1 1 0 0 0 0 0 0 0 0 0 0 0 0 0 0 0 0 0 0 0
2 4 7 8 7 4 2 2 3 3 4 6 6 7 7 7 6 6 6 6 5 3 1 0 0 0 0 0 0 0 0 0 0 0 0 0 0 0 0 0 0 0 0
1 3 6 7 7 5 3 2 3 3 4 6 6 7 7 7 6 6 6 6 5 3 1 0 0 0 0 0 0 0 0 0 0 0 0 0 0 0 0 0 0 0 0
0 2 5 6 6 6 4 2 3 4 5 5 6 6 6 7 6 6 6 5 4 3 2 1 0 0 0 0 0 0 0 0 0 0 0 0 0 0 0 0 0 0 0
0 1 3 5 6 6 5 4 3 3 4 4 4 4 5 6 6 7 6 5 3 3 3 2 1 1 1 0 0 0 0 0 0 0 0 0 0 0 0 0 0 0 0
0 0 1 3 4 5 5 6 5 5 5 5 4 4 5 6 7 8 8 6 4 4 4 4 3 3 2 1 0 0 0 0 0 0 0 0 0 0 0 0 0 0 0
0 0 0 1 2 4 7 8 7 7 7 7 6 6 7 8 9 9 10 8 6 6 6 6 5 4 3 2 0 0 0 0 0 0 0 0 0 0 0 0 0 0 0
1 1 1 1 2 4 7 10 10 9 8 8 8 9 10 10 10 10 10 9 7 7 6 6 6 4 2 1 0 0 0 0 0 0 0 0 0 0 0 0 0 0 0
2 2 2 2 3 4 7 9 11 10 9 8 9 10 11 11 10 10 9 8 8 7 7 6 5 3 1 0 0 0 0 0 0 0 0 0 0 0 0 0 0 0 0
3 3 3 3 3 4 6 8 10 10 9 9 9 10 11 10 9 9 8 7 7 8 7 5 4 2 1 0 0 0 0 0 0 0 0 0 0 0 0 0 0 0 0
3 3 3 3 3 4 5 7 9 9 8 8 8 9 9 8 7 6 6 5 5 6 6 5 4 3 1 0 0 0 0 0 0 0 0 0 0 0 0 0 0 0 0
1 2 2 3 4 4 5 6 7 7 6 5 6 6 5 5 4 4 4 3 3 4 5 5 5 3 1 0 0 0 0 0 0 0 0 0 0 0 0 0 0 0 0
0 0 1 3 5 6 5 5 5 4 3 3 3 3 3 2 2 2 2 2 2 2 3 5 6 4 1 0 0 0 0 0 0 0 0 0 0 0 0 0 0 0 0
1 1 1 3 5 5 5 5 4 3 1 1 1 1 1 1 1 1 1 1 1 2 3 5 6 3 1 0 0 0 0 0 0 0 0 0 0 0 0 0 0 0 0
2 1 1 1 2 3 4 4 3 2 0 0 0 0 0 0 0 0 0 0 1 2 4 6 5 2 0 0 0 0 0 0 0 0 0 0 0 0 0 0 0 0 0
1 1 0 0 0 1 3 3 1 0 0 0 0 0 0 0 0 0 0 0 0 1 3 5 4 1 0 0 0 0 0 0 0 0 0 0 0 0 0 0 0 0 0
0 0 0 0 0 1 2 2 0 0 0 0 0 0 0 0 0 0 0 0 0 0 2 4 3 1 0 0 0 0 0 0 0 0 0 0 0 0 0 0 0 0 0
Wind_Speed
8 8 7 6 5 5 5 6 5 4 3 2 2 2 2 2 2 2 2 3 3 3 3 2 2 2 2 1 2 2 2 1 1 1 2 1 1 2 1 1 1 2 2
8 8 8 6 5 5 5 6 6 5 4 2 2 2 2 2 2 1 2 2 2 2 2 2 2 2 2 2 2 2 1 1 1 1 1 1 2 2 1 1 1 1 2
8 8 8 7 6 5 5 5 5 5 4 4 2 2 2 1 2 2 1 1 2 3 3 2 2 1 1 1 1 1 2 1 2 2 1 1 0 2 1 0 1 1 1
7 8 7 7 6 5 5 5 6 6 5 5 3 3 2 2 2 2 2 1 1 2 1 1 1 1 1 1 1 2 1 1 1 2 1 0 1 1 1 2 2 2 2
7 7 7 6 6 5 4 4 5 5 5 5 4 3 2 2 1 2 2 2 1 1 1 1 1 1 1 1 1 2 2 1 1 1 1 2 2 1 1 1 2 2 1
7 6 7 6 5 5 4 3 4 4 5 5 5 3 3 2 2 2 2 1 1 1 1 1 1 1 1 1 1 1 1 1 1 1 1 0 0 1 0 0 1 0 1
6 6 7 7 6 6 5 4 4 4 4 5 5 4 4 3 3 3 2 2 1 1 1 1 1 1 1 1 1 1 0 0 1 1 1 1 1 0 0 0 1 1 1
6 6 6 7 6 6 6 5 5 4 4 4 4 4 4 3 2 3 2 2 2 2 2 2 2 1 1 1 1 0 0 0 0 1 1 1 1 1 1 0 0 1 1
5 6 5 6 6 6 6 5 5 4 4 4 3 4 4 3 3 3 3 2 2 2 2 2 2 2 2 1 1 0 0 0 0 1 1 0 1 1 1 1 0 1 1
4 5 5 6 6 6 5 5 5 4 4 4 3 3 3 4 4 3 3 3 3 2 2 2 2 2 1 1 1 0 0 0 0 1 1 0 0 0 0 1 1 0 1
4 4 4 5 5 5 5 5 4 4 4 4 3 3 3 3 3 3 3 3 3 2 2 2 2 2 2 2 2 1 1 1 1 1 1 1 0 0 0 1 1 1 0
4 4 4 4 5 5 5 4 4 4 3 3 3 3 3 3 3 3 3 3 3 3 3 2 2 2 2 2 2 2 2 2 2 2 2 2 1 1 1 1 1 1 1
4 4 3 3 4 5 5 4 4 4 3 3 3 2 2 3 3 3 3 3 3 3 2 2 2 2 1 1 2 2 2 2 3 3 2 2 2 2 1 1 1 1 1
3 3 3 3 3 4 4 4 4 4 3 3 3 3 3 2 2 2 3 3 3 3 3 3 2 2 2 2 2 2 2 2 2 2 2 3 2 2 2 2 2 1 1
3 3 3 3 3 3 3 3 3 4 4 4 3 3 3 3 2 2 2 2 2 3 3 3 2 2 2 2 2 2 2 2 2 2 3 3 3 3 3 2 2 2 1
2 2 2 3 3 3 3 2 3 3 4 4 4 3 3 3 3 3 3 3 2 2 2 2 2 2 2 2 2 2 2 2 3 3 3 3 3 3 4 4 4 3 3
2 1 1 1 2 2 3 2 2 2 4 4 4 3 3 3 3 3 2 3 3 3 2 2 2 2 2 2 2 3 3 3 4 4 3 3 2 3 3 4 5 4 5
2 2 1 0 0 1 2 2 2 2 3 3 3 3 3 3 2 2 2 2 2 2 2 3 2 2 2 3 3 3 3 4 4 4 4 3 3 2 2 2 2 3 4
2 2 1 1 0 0 1 2 2 2 2 3 3 3 3 3 2 2 2 2 2 2 2 2 2 2 2 3 3 3 2 3 4 4 2 2 2 2 1 2 2 3 3
2 2 1 1 1 0 1 1 2 2 2 2 1 2 2 3 2 2 2 1 1 2 2 1 1 2 2 2 2 2 2 3 3 2 2 2 2 2 2 2 2 3 3
2 2 1 1 0 0 0 1 2 2 2 1 1 1 2 2 2 2 1 1 1 1 1 1 1 1 1 1 2 2 2 2 2 2 1 1 1 2 2 3 3 3 3
2 1 1 1 1 0 1 1 1 1 1 1 1 1 1 2 2 2 1 1 2 2 2 2 1 1 1 1 2 3 3 2 2 2 1 1 1 1 2 2 2 3 2
0 0 0 0 0 0 1 1 1 1 2 1 1 1 1 1 1 2 2 2 1 1 2 1 1 1 1 1 1 2 3 3 2 1 1 1 2 3 2 3 4 2 1
0 0 0 0 0 0 1 0 1 2 2 2 2 2 2 2 1 0 1 1 1 1 2 1 2 1 1 0 0 1 1 2 1 1 2 2 3 2 2 2 2 1 1
0 0 0 0 1 0 0 0 1 1 2 2 2 1 1 1 1 1 1 1 1 2 2 2 1 1 1 0 0 0 1 1 1 1 1 1 1 0 0 0 1 1 1
0 0 1 1 0 0 0 0 1 1 1 1 1 1 1 1 1 1 1 2 1 2 2 2 2 1 1 1 1 1 1 2 2 1 0 0 0 0 0 0 0 1 1
Wind_Direction
172 164 162 153 154 154 149 140 142 140 127 110 104 99 94 85 75 71 63 44 34 37 55 57 39 49 60 42 40 45 22 8 9 24 350 345 54 73 97 77 40 41 71
171 162 163 161 165 161 156 151 153 149 136 123 126 130 122 119 116 96 69 60 52 40 51 59 69 60 49 30 40 42 25 347 8 53 29 9 7 349 76 103 105 65 60
170 164 168 168 167 165 163 155 151 143 137 138 123 112 100 100 94 100 81 53 57 59 47 32 55 81 83 59 37 44 58 344 336 32 70 97 267 311 327 150 98 86 71
166 159 164 165 169 166 161 158 154 149 148 142 141 142 146 151 158 140 134 118 82 80 67 52 42 70 78 76 35 47 25 35 339 339 355 36 124 129 322 335 20 59 70
156 154 163 163 163 158 156 161 156 152 152 148 150 155 151 145 142 127 134 142 118 105 83 66 51 64 77 72 58 49 17 20 1 348 337 349 358 344 119 313 329 8 37
152 152 160 154 154 147 147 155 155 151 151 153 155 162 155 153 148 143 150 152 144 161 159 124 98 85 96 82 70 74 27 9 359 357 4 9 10 328 37 241 274 304 313
147 151 154 154 155 150 151 154 152 151 158 164 166 174 169 175 165 158 168 167 157 174 205 170 160 146 134 118 87 88 92 23 12 353 341 353 344 5 12 21 291 316 289
143 149 152 156 154 151 157 166 163 160 166 177 178 176 172 173 168 173 170 174 166 177 191 177 172 168 147 136 129 78 105 65 343 320 335 346 342 14 23 8 46 333 322
137 143 144 150 155 157 163 169 168 168 172 183 186 181 175 178 173 177 173 168 172 179 177 184 174 171 149 148 144 158 139 2 324 308 322 331 331 1 352 359 56 145 289
135 142 144 149 155 161 166 172 174 176 177 181 191 188 185 185 179 184 183 173 175 170 185 193 179 168 162 164 139 194 248 184 272 272 279 299 294 319 314 307 308 297 180
136 138 143 147 149 151 161 173 179 177 181 188 192 187 190 187 179 187 178 166 167 176 195 191 184 182 181 171 163 198 205 216 229 247 247 273 266 266 282 285 302 298 229
125 128 130 136 146 155 162 170 176 178 180 184 187 188 183 177 183 193 178 170 178 190 194 189 197 200 191 183 181 207 220 220 231 239 224 233 249 251 260 260 266 261 244
117 127 135 143 158 162 167 173 171 173 172 172 176 174 176 187 196 193 183 182 185 191 193 202 208 212 204 203 206 212 229 225 222 226 225 224 220 241 240 238 250 256 266
130 140 152 157 160 165 169 170 170 165 161 158 165 172 181 189 197 189 186 190 188 192 199 200 204 207 217 223 229 222 236 249 246 235 230 219 216 217 230 235 243 244 248
149 151 160 159 160 163 170 168 165 164 163 160 169 184 188 186 186 190 197 194 190 200 198 198 202 211 216 225 224 235 246 246 252 256 253 233 216 216 224 232 222 218 227
141 136 153 159 172 176 173 166 166 170 165 167 181 184 186 183 186 190 202 199 195 206 196 204 206 221 239 234 240 256 257 254 248 254 256 243 221 235 241 244 234 215 210
133 141 151 162 182 184 165 166 176 182 176 175 179 181 185 189 192 199 194 199 202 207 208 213 209 222 232 225 248 260 255 251 250 246 247 257 235 220 216 237 237 238 239
127 107 80 55 153 161 159 165 170 183 186 178 175 181 189 193 192 181 183 202 210 205 209 216 214 218 231 232 255 269 259 256 258 250 240 237 237 233 215 216 228 231 232
94 93 72 41 39 97 165 166 179 193 197 192 188 186 183 181 181 179 196 209 212 210 200 190 191 214 245 241 249 250 248 257 263 261 247 235 238 247 216 212 232 245 258
71 70 63 36 61 32 91 167 182 188 197 199 191 178 174 169 177 197 216 209 195 206 186 180 189 204 228 241 253 250 249 256 260 257 252 254 259 244 214 218 224 235 251
62 62 63 49 67 74 186 214 202 202 190 163 161 170 167 168 179 198 209 192 187 193 187 201 222 210 215 233 269 270 255 259 267 265 262 268 256 227 232 238 225 245 261
42 34 33 38 48 41 254 229 198 150 124 128 157 172 177 181 178 171 195 192 178 202 206 208 240 230 206 214 266 271 266 293 272 276 283 278 291 317 306 277 273 274 279
5 340 6 75 3 332 301 254 145 131 135 146 165 174 176 179 180 172 195 196 181 214 215 208 222 248 224 198 224 271 276 290 283 263 289 292 287 286 285 278 279 270 252
276 312 177 182 287 302 304 344 119 143 155 162 172 182 179 177 158 154 183 171 167 218 217 222 224 223 199 178 181 253 282 288 299 316 322 302 274 266 255 274 279 259 230
22 290 236 218 284 298 353 65 116 147 166 162 164 170 145 136 133 109 60 149 173 212 210 223 228 205 214 237 77 27 300 312 291 313 324 314 317 326 84 318 279 286 301
265 243 201 185 244 280 33 49 124 159 168 158 150 137 125 138 160 140 78 42 162 177 190 198 212 209 167 138 90 37 11 349 334 360 329 287 248 171 164 168 296 278 268